Zurück zum Katalog

METEOR 2-17 DEB

AktivPO
NORAD 35370·DEBRIS·🇷🇺 Russia

Gestartet Jan 30, 1988 von Plesetsk Cosmodrome

Loading…

Nächste Überflüge (nächste 24 Stunden)

TLE

AlterndSource: Space-Track

Epoche: Sep 4, 2026, 14:19 UTC

1 35370U 88005AE  26247.59691475  .00001019  00000-0  65102-3 0  9994
2 35370  82.5238 191.7773 0027532  49.3622 129.2991 14.02456318976210

Verfolge METEOR 2-17 DEB in Echtzeit mit AllMySat

Download on the App Store